Weather in Wrangell

United States     56°27′41″N   132°22′04″W
temp.,
°C
wind,
m/s
gust,
m/s
humid.,
%
clouds,
%
prec.,
mm/h
press.,
hPa
HPBL,
m
16 may, sun
sun1601:00+4wsw1195100 1.5 1017392
04:00+4w1196100 2.7 1016385
07:00+3wsw1196100 1.5 1016351
10:00+4sse119093 2.4 1016307
13:00+6wsw227065 0.4 1016811
16:00+7wsw126444 1.0 1015974
19:00+6wsw116528 0.1 1014642
22:00+3wnw01838 0.1 101412
17 may, mon
mon1701:00+3nnw008512 0.0 101320
04:00+2ne11866 0.0 101272
07:00+4n1175100 0.0 1011256
10:00+7wsw1164100 0.0 1010858
13:00+8w116051 0.1 1010918
16:00+9w115636 0.3 10101067
19:00+8sw125845 0.1 1010472
22:00+5nnw007558 0.1 101010
18 may, tue
tue1801:00+4wnw118284 0.0 101113
04:00+4e0086100 0.0 101217
07:00+6wnw117554 0.0 1013219
10:00+8wsw11615 0.0 1014705
13:00+10wsw215532 0.0 10161070
16:00+11wsw225155 0.0 1016943
19:00+10sw125847 0.0 1017466
22:00+7ssw117347 0.0 101810
19 may, wed
wed1901:00+5s01835 0.0 102011
04:00+4se01884 0.0 102111
07:00+7ssw11784 0.0 1021180
10:00+10wsw11654 0.0 1021646
13:00+11sw225929 0.0 1021970
16:00+13wsw125414 0.0 1020936
19:00+12sw12585 0.0 1019444
22:00+8wsw11765 0.0 102010
20 may, thu
thu2001:00+7sw01840 0.0 102110
04:00+6ene0087100 0.0 102110
07:00+8nw007676 0.0 1021135
10:00+11wsw115653 0.0 1020666
13:00+12wsw1147100 0.0 1020935
16:00+13wsw114288 0.0 1020810
19:00+12wsw11466 0.0 1020398
22:00+8ene016096 0.0 102010